When you browse on this site, cookies collect data to enhance your experience and personalize the content and advertising you see.
Visit our Privacy Policy to learn more. By continuing to use the site, you agree to this use of cookies and data.
  • En España
  • Lista de países
  • Para 7 días
  • Temperatura del agua
  • Mapa Satelital
  • El tiempo en el mapa
  • Informadores
  • user-avatar
    Iniciar sesión

    Tiempo cada hora Birmingem

    Hoy, 21 Abril, Domingo

    Tiempo Temperatura Precipitaciones Viento Presión Humedad
    00:00 +9°C° 0 mm 1 mps 742 mmHg 71%
    01:00 +9°C° 0 mm 1 mps 743 mmHg 74%
    02:00 +9°C° 0 mm 1 mps 743 mmHg 76%
    03:00 +7°C° 0 mm 0 mps 743 mmHg 78%
    04:00 +8°C° 0 mm 0 mps 744 mmHg 77%
    05:00 +8°C° 0 mm 0 mps 744 mmHg 77%
    06:00 +8°C° 0 mm 0 mps 745 mmHg 76%
    07:00 +11°C° 0 mm 0 mps 745 mmHg 66%
    08:00 +16°C° 0 mm 1 mps 745 mmHg 56%
    09:00 +20°C° 0 mm 1 mps 746 mmHg 46%
    10:00 +22°C° 0 mm 1 mps 746 mmHg 41%
    11:00 +23°C° 0 mm 2 mps 746 mmHg 37%
    12:00 +25°C° 0 mm 2 mps 746 mmHg 33%
    13:00 +25°C° 0 mm 2 mps 745 mmHg 33%
    14:00 +26°C° 0 mm 2 mps 745 mmHg 33%
    15:00 +26°C° 0 mm 2 mps 745 mmHg 33%
    16:00 +24°C° 0 mm 1 mps 745 mmHg 40%
    17:00 +23°C° 0 mm 1 mps 745 mmHg 47%
    18:00 +21°C° 0 mm 1 mps 745 mmHg 54%
    19:00 +18°C° 0 mm 0 mps 745 mmHg 58%
    20:00 +16°C° 0 mm 0 mps 746 mmHg 62%
    21:00 +15°C° 0 mm 0 mps 746 mmHg 66%
    22:00 +14°C° 0 mm 0 mps 746 mmHg 68%
    23:00 +14°C° 0 mm 0 mps 746 mmHg 70%

    Mañana, 22 Abril, Lunes

    Tiempo Temperatura Precipitaciones Viento Presión Humedad
    00:00 +13°C° 0 mm 0 mps 746 mmHg 73%
    01:00 +13°C° 0 mm 0 mps 746 mmHg 74%
    02:00 +12°C° 0 mm 0 mps 746 mmHg 76%
    03:00 +12°C° 0 mm 0 mps 746 mmHg 77%
    04:00 +12°C° 0 mm 0 mps 746 mmHg 77%
    05:00 +12°C° 0 mm 0 mps 747 mmHg 77%
    06:00 +12°C° 0 mm 0 mps 747 mmHg 77%
    07:00 +16°C° 0 mm 0 mps 747 mmHg 67%
    08:00 +19°C° 0 mm 0 mps 748 mmHg 57%
    09:00 +22°C° 0 mm 0 mps 748 mmHg 47%
    10:00 +26°C° 0 mm 1 mps 748 mmHg 42%
    11:00 +27°C° 0 mm 1 mps 747 mmHg 37%
    12:00 +29°C° 0 mm 1 mps 747 mmHg 32%
    13:00 +29°C° 0 mm 1 mps 747 mmHg 31%
    14:00 +29°C° 0 mm 1 mps 746 mmHg 31%
    15:00 +29°C° 0 mm 1 mps 745 mmHg 30%
    16:00 +27°C° 0 mm 1 mps 745 mmHg 38%
    17:00 +26°C° 0 mm 1 mps 745 mmHg 45%
    18:00 +24°C° 0 mm 1 mps 745 mmHg 52%
    19:00 +22°C° 0 mm 1 mps 745 mmHg 56%
    20:00 +21°C° 0 mm 1 mps 746 mmHg 60%
    21:00 +20°C° 0 mm 1 mps 746 mmHg 64%
    22:00 +19°C° 0 mm 1 mps 746 mmHg 64%
    23:00 +18°C° 0 mm 1 mps 746 mmHg 65%

    Pasado mañana, 23 Abril, Martes

    Tiempo Temperatura Precipitaciones Viento Presión Humedad
    00:00 +16°C° 0 mm 0 mps 746 mmHg 65%
    01:00 +15°C° 0 mm 0 mps 745 mmHg 67%
    02:00 +15°C° 0 mm 0 mps 745 mmHg 69%
    03:00 +15°C° 0 mm 1 mps 745 mmHg 70%
    04:00 +14°C° 0 mm 0 mps 745 mmHg 72%
    05:00 +14°C° 0 mm 0 mps 746 mmHg 73%
    06:00 +14°C° 0 mm 0 mps 746 mmHg 74%
    07:00 +17°C° 0 mm 0 mps 746 mmHg 65%
    08:00 +22°C° 0 mm 1 mps 746 mmHg 57%
    09:00 +25°C° 0 mm 1 mps 747 mmHg 48%
    10:00 +27°C° 0 mm 1 mps 747 mmHg 43%
    11:00 +28°C° 0 mm 2 mps 746 mmHg 39%
    12:00 +29°C° 0 mm 2 mps 746 mmHg 34%
    13:00 +29°C° 0 mm 2 mps 745 mmHg 34%
    14:00 +30°C° 0 mm 2 mps 745 mmHg 34%
    15:00 +30°C° 0 mm 2 mps 744 mmHg 34%
    16:00 +28°C° 0 mm 2 mps 744 mmHg 41%
    17:00 +26°C° 0 mm 2 mps 744 mmHg 48%
    18:00 +25°C° 0 mm 2 mps 744 mmHg 55%
    19:00 +23°C° 0 mm 1 mps 744 mmHg 57%
    20:00 +22°C° 0 mm 1 mps 744 mmHg 60%
    21:00 +19°C° 0 mm 0 mps 744 mmHg 62%
    22:00 +19°C° 0 mm 0 mps 744 mmHg 63%
    23:00 +18°C° 0 mm 0 mps 744 mmHg 64%

    24 Abril, Miércoles

    Tiempo Temperatura Precipitaciones Viento Presión Humedad
    00:00 +18°C° 0 mm 0 mps 744 mmHg 65%
    01:00 +17°C° 0 mm 0 mps 744 mmHg 68%
    02:00 +17°C° 0 mm 0 mps 743 mmHg 70%
    03:00 +18°C° 0 mm 1 mps 743 mmHg 72%
    04:00 +18°C° 0 mm 1 mps 743 mmHg 74%
    05:00 +16°C° 0 mm 0 mps 744 mmHg 76%
    06:00 +16°C° 0 mm 0 mps 744 mmHg 77%
    07:00 +21°C° 0 mm 1 mps 744 mmHg 69%
    08:00 +23°C° 0 mm 1 mps 745 mmHg 60%
    09:00 +26°C° 0 mm 1 mps 745 mmHg 52%
    10:00 +27°C° 0 mm 1 mps 745 mmHg 46%
    11:00 +29°C° 0 mm 2 mps 744 mmHg 40%
    12:00 +30°C° 0 mm 2 mps 744 mmHg 34%
    13:00 +30°C° 0 mm 2 mps 743 mmHg 33%
    14:00 +30°C° 0 mm 3 mps 743 mmHg 32%
    15:00 +30°C° 0 mm 3 mps 742 mmHg 32%
    16:00 +28°C° 0 mm 3 mps 742 mmHg 39%
    17:00 +26°C° 0 mm 2 mps 742 mmHg 46%
    18:00 +25°C° 0 mm 2 mps 742 mmHg 54%
    19:00 +23°C° 0 mm 2 mps 742 mmHg 58%
    20:00 +21°C° 0 mm 2 mps 742 mmHg 63%
    21:00 +20°C° 0 mm 2 mps 742 mmHg 68%
    22:00 +19°C° 0 mm 2 mps 742 mmHg 70%
    23:00 +20°C° 0 mm 1 mps 742 mmHg 72%

    25 Abril, Jueves

    Tiempo Temperatura Precipitaciones Viento Presión Humedad
    00:00 +19°C° 0 mm 1 mps 742 mmHg 73%
    01:00 +19°C° 0 mm 1 mps 742 mmHg 76%
    02:00 +18°C° 0 mm 1 mps 742 mmHg 79%
    03:00 +18°C° 0 mm 1 mps 741 mmHg 83%
    04:00 +18°C° 0 mm 1 mps 742 mmHg 82%
    05:00 +18°C° 0 mm 1 mps 742 mmHg 82%
    06:00 +19°C° 0 mm 1 mps 742 mmHg 82%
    07:00 +21°C° 0 mm 1 mps 743 mmHg 75%
    08:00 +23°C° 0 mm 2 mps 743 mmHg 68%
    09:00 +25°C° 0 mm 2 mps 743 mmHg 62%
    10:00 +25°C° 0 mm 2 mps 742 mmHg 58%
    11:00 +26°C° 0 mm 3 mps 742 mmHg 54%
    12:00 +26°C° 0 mm 3 mps 742 mmHg 50%
    13:00 +26°C° 0 mm 3 mps 742 mmHg 54%
    14:00 +25°C° 0 mm 3 mps 741 mmHg 58%
    15:00 +24°C° 0 mm 3 mps 741 mmHg 62%
    16:00 +23°C° 0.1 mm 2 mps 741 mmHg 67%
    17:00 +23°C° 0.1 mm 2 mps 741 mmHg 72%
    18:00 +21°C° 0.1 mm 2 mps 741 mmHg 76%
    19:00 +20°C° 0.1 mm 2 mps 741 mmHg 80%
    20:00 +20°C° 0.1 mm 2 mps 741 mmHg 83%
    21:00 +19°C° 0.1 mm 2 mps 741 mmHg 86%
    22:00 +19°C° 2.8 mm 2 mps 741 mmHg 88%
    23:00 +19°C° 2.8 mm 2 mps 740 mmHg 90%

    26 Abril, Viernes

    Tiempo Temperatura Precipitaciones Viento Presión Humedad
    00:00 +19°C° 2.8 mm 2 mps 740 mmHg 92%
    01:00 +18°C° 1.7 mm 2 mps 740 mmHg 94%
    02:00 +19°C° 1.7 mm 1 mps 740 mmHg 95%
    03:00 +19°C° 1.7 mm 1 mps 739 mmHg 96%
    04:00 +19°C° 0.4 mm 1 mps 740 mmHg 96%
    05:00 +19°C° 0.4 mm 1 mps 740 mmHg 96%
    06:00 +19°C° 0.4 mm 1 mps 740 mmHg 96%
    07:00 +20°C° 0.1 mm 1 mps 740 mmHg 93%
    08:00 +21°C° 0.1 mm 1 mps 741 mmHg 90%
    09:00 +22°C° 0.1 mm 1 mps 741 mmHg 87%
    10:00 +23°C° 1 mm 2 mps 741 mmHg 83%
    11:00 +24°C° 1 mm 2 mps 741 mmHg 78%
    12:00 +25°C° 1 mm 3 mps 741 mmHg 73%
    13:00 +25°C° 0.5 mm 3 mps 741 mmHg 71%
    14:00 +26°C° 0.5 mm 3 mps 740 mmHg 69%
    15:00 +26°C° 0.5 mm 3 mps 740 mmHg 66%
    16:00 +25°C° 0.1 mm 3 mps 741 mmHg 68%
    17:00 +24°C° 0.1 mm 2 mps 741 mmHg 70%
    18:00 +24°C° 0.1 mm 2 mps 741 mmHg 71%
    19:00 +23°C° 0 mm 2 mps 742 mmHg 75%
    20:00 +20°C° 0 mm 2 mps 742 mmHg 78%
    21:00 +19°C° 0 mm 2 mps 743 mmHg 82%
    22:00 +19°C° 0 mm 2 mps 742 mmHg 83%
    23:00 +18°C° 0 mm 2 mps 742 mmHg 84%
    Mostrar más